Location: Monrovia
(34.7865°N, 86.7139°W)
Time: 22:04:33
(UTC+00:00)

ATLAS 2AS CENTAUR R/B - Pass Details

Date: 14 July 2020
Orbit: 930 x 1282 km, 63.7° (Epoch: 19 July)

Event Time Altitude Azimuth Distance (km) Brightness Sun altitude
Rises 01:39:05 0° 338° (NNW) 4,159 6.8 -7.5°
Reaches altitude 10° 01:42:49 10° 353° (N) 3,137 5.8 -8.2°
Maximum altitude 01:48:14 21° 40° (NE) 2,330 4.4 -9.1°
Drops below altitude 10° 01:53:20 10° 87° (E) 2,943 4.5 -10.0°
Enters shadow 01:54:27 - 93° (E) 3,216 4.7 -10.2°
